Location: Winthrop
(48.4780°N, 120.1850°W)
Time: 17:39:20
(UTC-08:00)

X-37B - Visible Passes

Search period start: 05 December 2021 00:00
Search period end: 15 December 2021 00:00
Orbit: 330 x 341 km, 45.0° (Epoch: 20 November)

Date Brightness Start Highest point End Pass type
(mag) Time Alt. Az. Time Alt. Az. Time Alt. Az.
06 Dec 3.1 18:05:21 10° S 18:05:51 11° S 18:05:51 11° S visible
07 Dec 2.9 18:24:31 10° SSW 18:25:30 16° SSW 18:25:30 16° SSW visible
08 Dec 2.9 17:10:48 10° S 17:12:07 12° SSE 17:13:26 10° SE visible
08 Dec 3.4 18:44:27 10° SW 18:45:05 15° SW 18:45:05 15° SW visible
09 Dec 2.2 17:29:57 10° SSW 17:32:16 22° SSE 17:33:25 17° SE visible
10 Dec 1.4 17:49:53 10° SW 17:52:30 33° SSE 17:52:57 31° SSE visible
11 Dec 1.4 18:10:05 10° WSW 18:12:29 38° SSW 18:12:29 38° SSW visible
12 Dec 1.7 16:55:19 10° SW 16:57:56 33° SSE 17:00:35 10° ESE visible
12 Dec 2.5 18:30:26 10° WSW 18:32:02 26° SW 18:32:02 26° SW visible
13 Dec 1.3 17:15:31 10° WSW 17:18:15 40° S 17:20:24 14° ESE visible
13 Dec 3.5 18:50:53 10° WSW 18:51:37 15° WSW 18:51:37 15° WSW visible
14 Dec 1.4 17:35:52 10° WSW 17:38:34 38° S 17:40:02 21° SE visible
